Time,TemperatureF,DewpointF,PressureIn,WindDirection,WindDirectionDegrees,WindSpeedMPH,WindSpeedGustMPH,Humidity,HourlyPrecipIn,Conditions,Clouds,dailyrainin,SoftwareType,DateUTC
2013-06-11 00:01:00,76.1,75.5,30.03,South,180,5.8,5.8,98,0.00,CLR,,0.00,WeatherDisplay:10.37,2013-06-11 04:01:00,
2013-06-11 00:02:00,76.1,75.5,30.03,South,180,5.8,5.8,98,0.00,CLR,,0.00,WeatherDisplay:10.37,2013-06-11 04:02:00,
2013-06-11 00:07:00,76.1,75.5,30.03,South,180,6.9,6.9,98,0.00,CLR,,0.00,WeatherDisplay:10.37,2013-06-11 04:07:00,
2013-06-11 00:12:00,76.1,75.5,30.03,South,180,4.7,4.7,98,0.00,CLR,,0.00,WeatherDisplay:10.37,2013-06-11 04:12:00,
2013-06-11 00:17:00,76.1,75.5,30.02,South,180,4.7,4.7,98,0.00,CLR,,0.00,WeatherDisplay:10.37,2013-06-11 04:17:00,
2013-06-11 00:22:00,76.1,75.5,30.02,South,180,6.9,6.9,98,0.00,CLR,,0.00,WeatherDisplay:10.37,2013-06-11 04:22:00,
2013-06-11 00:27:00,76.1,75.5,30.02,South,180,6.9,6.9,98,0.00,CLR,,0.00,WeatherDisplay:10.37,2013-06-11 04:27:00,
2013-06-11 00:32:00,76.1,75.5,30.02,South,180,6.5,6.5,98,0.00,CLR,,0.00,WeatherDisplay:10.37,2013-06-11 04:32:00,
2013-06-11 00:37:00,76.1,75.5,30.02,South,180,7.4,7.4,98,0.00,CLR,,0.00,WeatherDisplay:10.37,2013-06-11 04:37:00,
2013-06-11 00:42:00,76.1,75.5,30.02,South,180,6.9,6.9,98,0.00,CLR,,0.00,WeatherDisplay:10.37,2013-06-11 04:42:00,
2013-06-11 00:47:00,75.9,75.3,30.02,South,180,6.5,6.5,98,0.00,CLR,,0.00,WeatherDisplay:10.37,2013-06-11 04:47:00,
2013-06-11 00:52:00,75.9,75.3,30.02,SSE,158,6.9,6.9,98,0.00,CLR,,0.00,WeatherDisplay:10.37,2013-06-11 04:52:00,
2013-06-11 00:57:00,76.1,75.5,30.02,SSE,158,4.7,4.7,98,0.00,CLR,,0.00,WeatherDisplay:10.37,2013-06-11 04:57:00,
2013-06-11 01:02:00,76.1,75.5,30.02,SSE,158,5.8,5.8,98,0.00,CLR,,0.00,WeatherDisplay:10.37,2013-06-11 05:02:00,
2013-06-11 01:07:00,76.1,75.5,30.01,South,180,4.6,4.8,98,0.00,CLR,,0.00,WeatherDisplay:10.37,2013-06-11 05:07:00,
2013-06-11 01:12:00,76.1,75.5,30.01,South,180,6.9,6.9,98,0.00,CLR,,0.00,WeatherDisplay:10.37,2013-06-11 05:12:00,
2013-06-11 01:17:00,76.1,75.5,30.00,South,180,4.7,4.7,98,0.00,CLR,,0.00,WeatherDisplay:10.37,2013-06-11 05:17:00,
2013-06-11 01:22:00,76.1,75.5,30.00,South,180,4.7,4.7,98,0.00,CLR,,0.00,WeatherDisplay:10.37,2013-06-11 05:22:00,
2013-06-11 01:27:00,76.1,75.5,29.99,South,180,6.9,6.9,98,0.00,CLR,,0.00,WeatherDisplay:10.37,2013-06-11 05:27:00,
2013-06-11 01:32:00,75.9,75.3,29.99,South,180,5.8,5.8,98,0.00,CLR,,0.00,WeatherDisplay:10.37,2013-06-11 05:32:00,
2013-06-11 01:37:00,75.7,75.1,29.81,South,180,3.2,-999.0,98,-99.99,,,0.00,Acu-Link.com,2013-06-11 05:37:00,
2013-06-11 01:42:00,75.7,75.1,29.98,South,180,5.8,5.8,98,0.00,CLR,,0.00,WeatherDisplay:10.37,2013-06-11 05:42:00,
2013-06-11 01:47:00,75.7,75.1,29.98,South,180,5.6,5.6,98,0.00,CLR,,0.00,WeatherDisplay:10.37,2013-06-11 05:47:00,
2013-06-11 01:52:00,75.9,75.3,29.98,South,180,5.8,5.8,98,0.00,CLR,,0.00,WeatherDisplay:10.37,2013-06-11 05:52:00,
2013-06-11 01:57:00,75.9,75.3,29.98,South,180,6.9,6.9,98,0.00,CLR,,0.00,WeatherDisplay:10.37,2013-06-11 05:57:00,
2013-06-11 02:02:00,76.1,75.5,29.98,South,180,5.6,5.6,98,0.00,CLR,,0.00,WeatherDisplay:10.37,2013-06-11 06:02:00,
2013-06-11 02:07:00,76.3,75.7,29.98,South,180,6.9,6.9,98,0.00,CLR,,0.00,WeatherDisplay:10.37,2013-06-11 06:07:00,
2013-06-11 02:12:00,76.3,75.7,29.98,SSW,202,6.9,6.9,98,0.00,CLR,,0.00,WeatherDisplay:10.37,2013-06-11 06:12:00,
2013-06-11 02:17:00,76.3,75.7,29.98,SSW,202,6.9,6.9,98,0.00,CLR,,0.00,WeatherDisplay:10.37,2013-06-11 06:17:00,
2013-06-11 02:22:00,76.3,75.7,29.98,SSW,202,7.4,7.4,98,0.00,CLR,,0.00,WeatherDisplay:10.37,2013-06-11 06:22:00,
2013-06-11 02:27:00,76.5,75.9,29.98,SW,225,6.9,6.9,98,0.00,CLR,,0.00,WeatherDisplay:10.37,2013-06-11 06:27:00,
2013-06-11 02:32:00,76.5,75.9,29.98,SW,225,6.9,6.9,98,0.00,CLR,,0.00,WeatherDisplay:10.37,2013-06-11 06:32:00,
2013-06-11 02:37:00,76.5,75.9,29.98,SW,225,9.2,9.2,98,0.00,CLR,,0.00,WeatherDisplay:10.37,2013-06-11 06:37:00,
2013-06-11 02:42:00,76.5,75.9,29.98,SW,225,8.3,8.3,98,0.00,CLR,,0.00,WeatherDisplay:10.37,2013-06-11 06:42:00,
2013-06-11 02:47:00,76.1,75.5,29.98,WSW,248,10.4,10.4,98,0.00,CLR,,0.00,WeatherDisplay:10.37,2013-06-11 06:47:00,
2013-06-11 02:52:00,75.9,75.3,29.97,SW,225,7.4,7.4,98,0.00,CLR,,0.00,WeatherDisplay:10.37,2013-06-11 06:52:00,
2013-06-11 02:57:00,75.7,75.1,29.97,SW,225,8.1,8.1,98,0.00,CLR,,0.00,WeatherDisplay:10.37,2013-06-11 06:57:00,
2013-06-11 03:02:00,75.6,75.0,29.97,SW,225,8.1,8.1,98,0.00,CLR,,0.00,WeatherDisplay:10.37,2013-06-11 07:02:00,
2013-06-11 03:07:00,75.4,74.8,29.97,SW,225,9.2,9.2,98,0.00,CLR,,0.00,WeatherDisplay:10.37,2013-06-11 07:07:00,
2013-06-11 03:12:00,75.4,72.9,29.97,SW,225,6.9,7.0,92,0.00,CLR,,0.00,WeatherDisplay:10.37,2013-06-11 07:12:00,
2013-06-11 03:17:00,75.4,72.6,29.97,SW,225,6.9,6.9,91,0.00,CLR,,0.00,WeatherDisplay:10.37,2013-06-11 07:17:00,
2013-06-11 03:22:00,75.2,72.4,29.97,SW,225,6.9,6.9,91,0.00,CLR,,0.00,WeatherDisplay:10.37,2013-06-11 07:22:00,
2013-06-11 03:27:00,75.0,72.2,29.97,SW,225,8.1,8.1,91,0.00,CLR,,0.00,WeatherDisplay:10.37,2013-06-11 07:27:00,
2013-06-11 03:32:00,74.8,73.0,29.97,SW,225,6.9,6.9,94,0.00,CLR,,0.00,WeatherDisplay:10.37,2013-06-11 07:32:00,
2013-06-11 03:37:00,74.5,72.0,29.97,WSW,248,8.1,8.1,92,0.00,CLR,,0.00,WeatherDisplay:10.37,2013-06-11 07:37:00,
2013-06-11 03:43:00,74.3,71.5,29.98,SW,225,6.9,6.9,91,0.00,CLR,,0.00,WeatherDisplay:10.37,2013-06-11 07:43:00,
2013-06-11 03:48:00,74.3,71.5,29.98,SW,225,6.9,6.9,91,0.00,CLR,,0.00,WeatherDisplay:10.37,2013-06-11 07:48:00,
2013-06-11 03:53:00,74.3,73.7,29.97,SW,225,5.8,5.8,98,0.00,CLR,,0.00,WeatherDisplay:10.37,2013-06-11 07:53:00,
2013-06-11 03:58:00,74.3,73.7,29.97,WSW,248,5.8,5.8,98,0.00,CLR,,0.00,WeatherDisplay:10.37,2013-06-11 07:58:00,
2013-06-11 04:03:00,74.1,73.5,29.96,West,270,5.8,5.8,98,0.00,CLR,,0.00,WeatherDisplay:10.37,2013-06-11 08:03:00,
2013-06-11 04:08:00,74.1,73.5,29.96,WSW,248,5.8,5.8,98,0.00,CLR,,0.00,WeatherDisplay:10.37,2013-06-11 08:08:00,
2013-06-11 04:13:00,74.1,73.5,29.96,WSW,248,5.8,5.8,98,0.00,CLR,,0.00,WeatherDisplay:10.37,2013-06-11 08:13:00,
2013-06-11 04:18:00,74.3,73.7,29.97,WSW,248,9.2,9.2,98,0.00,CLR,,0.00,WeatherDisplay:10.37,2013-06-11 08:18:00,
2013-06-11 04:23:00,74.5,73.9,29.97,WSW,248,6.9,6.9,98,0.00,CLR,,0.00,WeatherDisplay:10.37,2013-06-11 08:23:00,
2013-06-11 04:28:00,74.5,73.9,29.97,WSW,248,7.4,7.4,98,0.00,CLR,,0.00,WeatherDisplay:10.37,2013-06-11 08:28:00,
2013-06-11 04:33:00,74.7,72.5,29.97,West,270,6.9,6.9,93,0.00,CLR,,0.00,WeatherDisplay:10.37,2013-06-11 08:33:00,
2013-06-11 04:38:00,74.5,73.9,29.96,WSW,248,6.9,6.9,98,0.00,CLR,,0.00,WeatherDisplay:10.37,2013-06-11 08:38:00,
2013-06-11 04:43:00,74.5,72.7,29.96,West,270,6.9,6.9,94,0.00,CLR,,0.00,WeatherDisplay:10.37,2013-06-11 08:43:00,
2013-06-11 04:48:00,74.3,71.8,29.96,West,270,4.6,4.6,92,0.00,CLR,,0.00,WeatherDisplay:10.37,2013-06-11 08:48:00,
2013-06-11 04:53:00,74.5,73.0,29.97,West,270,5.8,5.8,95,0.00,CLR,,0.00,WeatherDisplay:10.37,2013-06-11 08:53:00,
2013-06-11 04:58:00,74.7,74.1,29.97,WSW,248,4.7,4.7,98,0.00,CLR,,0.00,WeatherDisplay:10.37,2013-06-11 08:58:00,
2013-06-11 05:03:00,74.5,73.9,29.97,WSW,248,6.9,6.9,98,0.00,CLR,,0.00,WeatherDisplay:10.37,2013-06-11 09:03:00,
2013-06-11 05:08:00,74.7,72.2,29.97,WSW,248,5.8,5.8,92,0.00,CLR,,0.00,WeatherDisplay:10.37,2013-06-11 09:08:00,
2013-06-11 05:13:00,74.7,72.2,29.97,West,270,5.8,5.8,92,0.00,CLR,,0.00,WeatherDisplay:10.37,2013-06-11 09:13:00,
2013-06-11 05:18:00,74.3,71.8,29.97,West,270,6.9,6.9,92,0.00,CLR,,0.00,WeatherDisplay:10.37,2013-06-11 09:18:00,
2013-06-11 05:23:00,74.7,71.9,29.97,WSW,248,6.9,6.9,91,0.00,CLR,,0.00,WeatherDisplay:10.37,2013-06-11 09:23:00,
2013-06-11 05:28:00,74.7,72.2,29.97,West,270,6.9,6.9,92,0.00,CLR,,0.00,WeatherDisplay:10.37,2013-06-11 09:28:00,
2013-06-11 05:33:00,74.5,73.9,29.97,West,270,6.9,6.9,98,0.00,CLR,,0.00,WeatherDisplay:10.37,2013-06-11 09:33:00,
2013-06-11 05:38:00,74.5,72.3,29.97,West,270,8.1,8.1,93,0.00,CLR,,0.00,WeatherDisplay:10.37,2013-06-11 09:38:00,
2013-06-11 05:43:00,74.8,73.9,29.97,West,270,6.9,6.9,97,0.00,CLR,,0.00,WeatherDisplay:10.37,2013-06-11 09:43:00,
2013-06-11 05:48:00,75.0,74.1,29.97,West,270,9.2,9.2,97,0.00,CLR,,0.00,WeatherDisplay:10.37,2013-06-11 09:48:00,
2013-06-11 05:53:00,75.0,74.4,29.98,West,270,9.2,9.2,98,0.00,CLR,,0.00,WeatherDisplay:10.37,2013-06-11 09:53:00,
2013-06-11 05:58:00,75.0,74.4,29.98,WSW,248,6.5,6.5,98,0.00,CLR,,0.00,WeatherDisplay:10.37,2013-06-11 09:58:00,
2013-06-11 06:03:00,75.2,74.0,29.98,West,270,4.7,4.7,96,0.00,CLR,,0.00,WeatherDisplay:10.37,2013-06-11 10:03:00,
2013-06-11 06:08:00,75.2,72.4,29.98,WSW,248,6.9,6.9,91,0.00,CLR,,0.00,WeatherDisplay:10.37,2013-06-11 10:08:00,
2013-06-11 06:13:00,75.4,72.6,29.98,WSW,248,6.9,6.9,91,0.00,CLR,,0.00,WeatherDisplay:10.37,2013-06-11 10:13:00,
2013-06-11 06:18:00,75.6,72.8,29.99,SW,225,7.4,7.4,91,0.00,CLR,,0.00,WeatherDisplay:10.37,2013-06-11 10:18:00,
2013-06-11 06:23:00,75.6,72.8,29.99,WSW,248,6.9,6.9,91,0.00,CLR,,0.00,WeatherDisplay:10.37,2013-06-11 10:23:00,
2013-06-11 06:28:00,75.7,72.9,29.98,West,270,5.8,5.8,91,0.00,CLR,,0.00,WeatherDisplay:10.37,2013-06-11 10:28:00,
2013-06-11 06:33:00,75.7,72.9,29.98,West,270,9.2,9.2,91,0.00,CLR,,0.00,WeatherDisplay:10.37,2013-06-11 10:33:00,
2013-06-11 06:38:00,75.7,72.9,29.99,WSW,248,6.9,6.9,91,0.00,CLR,,0.00,WeatherDisplay:10.37,2013-06-11 10:38:00,
2013-06-11 06:43:00,75.7,72.9,29.99,West,270,6.9,6.9,91,0.00,CLR,,0.00,WeatherDisplay:10.37,2013-06-11 10:43:00,
2013-06-11 06:48:00,75.7,72.9,29.99,WSW,248,6.9,6.9,91,0.00,CLR,,0.00,WeatherDisplay:10.37,2013-06-11 10:48:00,
2013-06-11 06:53:00,75.7,72.9,29.99,WSW,248,8.1,8.1,91,0.00,CLR,,0.00,WeatherDisplay:10.37,2013-06-11 10:53:00,
2013-06-11 06:58:00,75.7,72.9,29.99,WSW,248,6.9,6.9,91,0.00,CLR,,0.00,WeatherDisplay:10.37,2013-06-11 10:58:00,
2013-06-11 07:03:00,75.7,74.2,29.98,SSW,202,8.1,8.1,95,0.00,CLR,,0.00,WeatherDisplay:10.37,2013-06-11 11:03:00,
2013-06-11 07:08:00,75.9,73.4,29.98,SW,225,8.1,8.1,92,0.00,CLR,,0.00,WeatherDisplay:10.37,2013-06-11 11:08:00,
2013-06-11 07:13:00,75.9,75.0,29.98,SW,225,6.5,6.5,97,0.00,CLR,,0.00,WeatherDisplay:10.37,2013-06-11 11:13:00,
2013-06-11 07:18:00,75.9,75.3,29.98,WSW,248,6.9,6.9,98,0.00,CLR,,0.00,WeatherDisplay:10.37,2013-06-11 11:18:00,
2013-06-11 07:23:00,75.9,73.4,29.98,West,270,5.8,5.8,92,0.00,CLR,,0.00,WeatherDisplay:10.37,2013-06-11 11:23:00,
2013-06-11 07:28:00,76.1,75.5,29.99,WSW,248,6.9,6.9,98,0.00,CLR,,0.00,WeatherDisplay:10.37,2013-06-11 11:28:00,
2013-06-11 07:33:00,76.3,75.7,29.99,WSW,248,5.8,5.8,98,0.00,CLR,,0.00,WeatherDisplay:10.37,2013-06-11 11:33:00,
2013-06-11 07:38:00,76.3,75.7,29.99,West,270,2.9,2.9,98,0.00,CLR,,0.00,WeatherDisplay:10.37,2013-06-11 11:38:00,
2013-06-11 07:43:00,76.3,74.4,29.99,West,270,5.6,5.6,94,0.00,CLR,,0.00,WeatherDisplay:10.37,2013-06-11 11:43:00,
2013-06-11 07:48:00,76.3,75.7,29.99,West,270,5.8,5.8,98,0.00,CLR,,0.00,WeatherDisplay:10.37,2013-06-11 11:48:00,
2013-06-11 07:53:00,76.3,73.8,29.99,West,270,4.7,4.7,92,0.00,CLR,,0.00,WeatherDisplay:10.37,2013-06-11 11:53:00,
2013-06-11 07:58:00,76.3,73.8,29.99,West,270,3.5,3.5,92,0.00,CLR,,0.00,WeatherDisplay:10.37,2013-06-11 11:58:00,
2013-06-11 08:03:00,76.3,73.5,29.99,NW,315,3.5,3.5,91,0.00,CLR,,0.00,WeatherDisplay:10.37,2013-06-11 12:03:00,
2013-06-11 08:08:00,76.3,73.5,29.99,SW,225,7.4,7.4,91,0.00,CLR,,0.00,WeatherDisplay:10.37,2013-06-11 12:08:00,
2013-06-11 08:13:00,76.5,73.3,29.99,West,270,5.8,5.8,90,0.00,CLR,,0.00,WeatherDisplay:10.37,2013-06-11 12:13:00,
2013-06-11 08:18:00,76.6,73.8,29.99,West,270,4.6,4.6,91,0.00,CLR,,0.00,WeatherDisplay:10.37,2013-06-11 12:18:00,
2013-06-11 08:23:00,76.6,73.8,29.99,SW,225,6.9,6.9,91,0.00,CLR,,0.00,WeatherDisplay:10.37,2013-06-11 12:23:00,
2013-06-11 08:28:00,76.6,73.8,29.99,WSW,248,6.5,6.5,91,0.00,CLR,,0.00,WeatherDisplay:10.37,2013-06-11 12:28:00,
2013-06-11 08:33:00,76.8,74.0,29.99,West,270,5.6,5.6,91,0.00,CLR,,0.00,WeatherDisplay:10.37,2013-06-11 12:33:00,
2013-06-11 08:38:00,77.0,74.2,29.99,West,270,4.6,4.6,91,0.00,CLR,,0.00,WeatherDisplay:10.37,2013-06-11 12:38:00,
2013-06-11 08:43:00,77.2,74.4,29.99,SW,225,9.2,9.2,91,0.00,CLR,,0.00,WeatherDisplay:10.37,2013-06-11 12:43:00,
2013-06-11 08:48:00,77.2,74.0,29.99,WSW,248,4.6,4.7,90,0.00,CLR,,0.00,WeatherDisplay:10.37,2013-06-11 12:48:00,
2013-06-11 08:53:00,77.2,74.0,29.99,SW,225,7.4,7.4,90,0.00,CLR,,0.00,WeatherDisplay:10.37,2013-06-11 12:53:00,
2013-06-11 08:58:00,77.0,73.8,29.99,West,270,5.8,5.8,90,0.00,CLR,,0.00,WeatherDisplay:10.37,2013-06-11 12:58:00,
2013-06-11 09:04:00,77.0,73.8,29.99,West,270,5.8,5.8,90,0.00,CLR,,0.00,WeatherDisplay:10.37,2013-06-11 13:04:00,
2013-06-11 09:09:00,77.0,73.8,29.99,West,270,4.7,4.7,90,0.00,CLR,,0.00,WeatherDisplay:10.37,2013-06-11 13:09:00,
2013-06-11 09:14:00,77.0,73.8,29.99,West,270,4.6,4.6,90,0.00,CLR,,0.00,WeatherDisplay:10.37,2013-06-11 13:14:00,
2013-06-11 09:19:00,77.2,74.0,29.99,West,270,3.8,3.8,90,0.00,CLR,,0.00,WeatherDisplay:10.37,2013-06-11 13:19:00,
2013-06-11 09:24:00,77.7,74.5,29.99,West,270,5.8,5.8,90,0.00,CLR,,0.00,WeatherDisplay:10.37,2013-06-11 13:24:00,
2013-06-11 09:29:00,77.7,73.9,29.99,WSW,248,6.9,6.9,88,0.00,CLR,,0.00,WeatherDisplay:10.37,2013-06-11 13:29:00,
2013-06-11 09:34:00,77.7,73.5,29.99,West,270,5.8,5.8,87,0.00,CLR,,0.00,WeatherDisplay:10.37,2013-06-11 13:34:00,
2013-06-11 09:39:00,78.1,73.9,29.99,West,270,6.9,6.9,87,0.00,CLR,,0.00,WeatherDisplay:10.37,2013-06-11 13:39:00,
2013-06-11 09:44:00,78.3,74.1,29.98,West,270,5.8,5.8,87,0.00,CLR,,0.00,WeatherDisplay:10.37,2013-06-11 13:44:00,
2013-06-11 09:49:00,78.3,73.8,29.98,West,270,7.4,7.4,86,0.00,CLR,,0.00,WeatherDisplay:10.37,2013-06-11 13:49:00,
2013-06-11 09:54:00,78.4,73.9,29.98,West,270,4.7,4.7,86,0.00,CLR,,0.00,WeatherDisplay:10.37,2013-06-11 13:54:00,
2013-06-11 09:59:00,78.3,73.8,29.98,West,270,6.9,6.9,86,0.00,CLR,,0.00,WeatherDisplay:10.37,2013-06-11 13:59:00,
2013-06-11 10:04:00,78.1,73.6,29.98,West,270,5.8,5.8,86,0.00,CLR,,0.00,WeatherDisplay:10.37,2013-06-11 14:04:00,
2013-06-11 10:09:00,78.3,73.8,29.98,SSW,202,10.4,10.4,86,0.00,CLR,,0.00,WeatherDisplay:10.37,2013-06-11 14:09:00,
2013-06-11 10:14:00,78.3,73.1,29.98,WSW,248,8.1,8.1,84,0.00,CLR,,0.00,WeatherDisplay:10.37,2013-06-11 14:14:00,
2013-06-11 10:19:00,78.6,73.4,29.97,West,270,6.9,6.9,84,0.00,CLR,,0.00,WeatherDisplay:10.37,2013-06-11 14:19:00,
2013-06-11 10:24:00,79.0,73.7,29.97,West,270,4.6,4.6,84,0.00,CLR,,0.00,WeatherDisplay:10.37,2013-06-11 14:24:00,
2013-06-11 10:29:00,79.3,73.7,29.96,WSW,248,4.6,4.6,83,0.00,CLR,,0.00,WeatherDisplay:10.37,2013-06-11 14:29:00,
2013-06-11 10:34:00,79.3,73.3,29.96,NW,315,5.8,5.8,82,0.00,CLR,,0.00,WeatherDisplay:10.37,2013-06-11 14:34:00,
2013-06-11 10:39:00,78.4,73.2,29.97,West,270,6.9,6.9,84,0.00,CLR,,0.00,WeatherDisplay:10.37,2013-06-11 14:39:00,
2013-06-11 10:44:00,78.4,73.5,29.97,West,270,6.9,6.9,85,0.00,CLR,,0.00,WeatherDisplay:10.37,2013-06-11 14:44:00,
2013-06-11 10:49:00,79.0,73.4,29.97,West,270,6.9,6.9,83,0.00,CLR,,0.00,WeatherDisplay:10.37,2013-06-11 14:49:00,
2013-06-11 10:54:00,79.2,73.9,29.97,WSW,248,8.1,8.1,84,0.00,CLR,,0.00,WeatherDisplay:10.37,2013-06-11 14:54:00,
2013-06-11 10:59:00,79.3,73.7,29.97,West,270,5.8,5.8,83,0.00,CLR,,0.00,WeatherDisplay:10.37,2013-06-11 14:59:00,
2013-06-11 11:04:00,79.9,73.5,29.97,WNW,292,6.9,6.9,81,0.00,CLR,,0.00,WeatherDisplay:10.37,2013-06-11 15:04:00,
2013-06-11 11:09:00,79.5,73.2,29.97,WSW,248,6.5,6.5,81,0.00,CLR,,0.00,WeatherDisplay:10.37,2013-06-11 15:09:00,
2013-06-11 11:14:00,80.1,74.1,29.97,WNW,292,7.4,7.4,82,0.00,CLR,,0.00,WeatherDisplay:10.37,2013-06-11 15:14:00,
2013-06-11 11:19:00,80.1,73.7,29.97,West,270,5.8,5.8,81,0.00,CLR,,0.00,WeatherDisplay:10.37,2013-06-11 15:19:00,
2013-06-11 11:24:00,80.1,73.4,29.97,WSW,248,6.9,6.9,80,0.00,CLR,,0.00,WeatherDisplay:10.37,2013-06-11 15:24:00,
2013-06-11 11:29:00,79.7,73.0,29.97,WSW,248,9.2,9.2,80,0.00,CLR,,0.00,WeatherDisplay:10.37,2013-06-11 15:29:00,
2013-06-11 11:34:00,79.9,73.5,29.97,West,270,3.5,4.1,81,0.00,CLR,,0.00,WeatherDisplay:10.37,2013-06-11 15:34:00,
2013-06-11 11:39:00,79.9,74.3,29.96,West,270,5.8,5.8,83,0.00,CLR,,0.00,WeatherDisplay:10.37,2013-06-11 15:39:00,
2013-06-11 11:44:00,79.9,73.9,29.96,West,270,6.5,6.5,82,0.00,CLR,,0.00,WeatherDisplay:10.37,2013-06-11 15:44:00,
2013-06-11 11:49:00,79.2,73.2,29.96,WSW,248,8.1,8.1,82,0.00,CLR,,0.00,WeatherDisplay:10.37,2013-06-11 15:49:00,
2013-06-11 11:54:00,79.0,73.0,29.96,WSW,248,8.1,8.1,82,0.00,CLR,,0.00,WeatherDisplay:10.37,2013-06-11 15:54:00,
2013-06-11 11:59:00,78.6,73.0,29.96,WSW,248,6.9,6.9,83,0.00,CLR,,0.00,WeatherDisplay:10.37,2013-06-11 15:59:00,
2013-06-11 12:04:00,78.6,73.0,29.95,West,270,6.9,6.9,83,0.00,CLR,,0.00,WeatherDisplay:10.37,2013-06-11 16:04:00,
2013-06-11 12:09:00,79.2,73.9,29.95,SW,225,8.3,8.3,84,0.00,CLR,,0.00,WeatherDisplay:10.37,2013-06-11 16:09:00,
2013-06-11 12:14:00,79.2,73.2,29.96,WSW,248,10.1,10.1,82,0.00,CLR,,0.00,WeatherDisplay:10.37,2013-06-11 16:14:00,
2013-06-11 12:19:00,79.3,73.3,29.96,WNW,292,5.8,5.8,82,0.00,CLR,,0.00,WeatherDisplay:10.37,2013-06-11 16:19:00,
2013-06-11 12:24:00,79.0,73.4,29.96,WSW,248,11.0,11.0,83,0.00,CLR,,0.00,WeatherDisplay:10.37,2013-06-11 16:24:00,
2013-06-11 12:29:00,78.6,72.6,29.95,WNW,292,5.8,5.8,82,0.00,CLR,,0.00,WeatherDisplay:10.37,2013-06-11 16:29:00,
2013-06-11 12:34:00,78.3,72.3,29.95,NW,315,9.2,9.2,82,0.00,CLR,,0.00,WeatherDisplay:10.37,2013-06-11 16:34:00,
2013-06-11 12:39:00,78.6,72.6,29.96,NW,315,8.1,8.1,82,0.00,CLR,,0.00,WeatherDisplay:10.37,2013-06-11 16:39:00,
2013-06-11 12:44:00,78.8,72.8,29.96,West,270,5.8,5.8,82,0.00,CLR,,0.00,WeatherDisplay:10.37,2013-06-11 16:44:00,
2013-06-11 12:49:00,79.0,73.4,29.96,WNW,292,6.9,6.9,83,0.00,CLR,,0.00,WeatherDisplay:10.37,2013-06-11 16:49:00,
2013-06-11 12:54:00,79.9,73.9,29.95,WNW,292,9.2,9.2,82,0.00,CLR,,0.00,WeatherDisplay:10.37,2013-06-11 16:54:00,
2013-06-11 12:59:00,80.1,74.5,29.95,WSW,248,9.2,9.2,83,0.00,CLR,,0.00,WeatherDisplay:10.37,2013-06-11 16:59:00,
2013-06-11 13:04:00,79.9,73.9,29.94,West,270,6.9,6.9,82,0.00,CLR,,0.00,WeatherDisplay:10.37,2013-06-11 17:04:00,
2013-06-11 13:09:00,79.9,73.9,29.94,SSW,202,7.4,7.4,82,0.00,CLR,,0.00,WeatherDisplay:10.37,2013-06-11 17:09:00,
2013-06-11 13:14:00,79.9,73.9,29.94,West,270,9.2,9.2,82,0.00,CLR,,0.00,WeatherDisplay:10.37,2013-06-11 17:14:00,
2013-06-11 13:19:00,80.1,74.1,29.94,SW,225,8.3,8.3,82,0.00,CLR,,0.00,WeatherDisplay:10.37,2013-06-11 17:19:00,
2013-06-11 13:24:00,79.9,73.5,29.94,SW,225,7.4,7.4,81,0.00,CLR,,0.00,WeatherDisplay:10.37,2013-06-11 17:24:00,
2013-06-11 13:29:00,79.2,73.6,29.95,WSW,248,9.2,9.2,83,0.00,CLR,,0.00,WeatherDisplay:10.37,2013-06-11 17:29:00,
2013-06-11 13:34:00,79.3,73.3,29.95,SW,225,11.5,11.5,82,0.00,CLR,,0.00,WeatherDisplay:10.37,2013-06-11 17:34:00,
2013-06-11 13:39:00,79.7,74.1,29.94,WSW,248,7.4,7.4,83,0.00,CLR,,0.00,WeatherDisplay:10.37,2013-06-11 17:39:00,
2013-06-11 13:44:00,79.9,73.9,29.94,West,270,11.5,11.5,82,0.00,CLR,,0.00,WeatherDisplay:10.37,2013-06-11 17:44:00,
2013-06-11 13:49:00,80.1,73.7,29.94,WSW,248,6.9,6.9,81,0.00,CLR,,0.00,WeatherDisplay:10.37,2013-06-11 17:49:00,
2013-06-11 13:54:00,80.2,73.8,29.94,West,270,6.9,6.9,81,0.00,CLR,,0.00,WeatherDisplay:10.37,2013-06-11 17:54:00,
2013-06-11 13:59:00,80.2,73.8,29.94,SW,225,6.9,6.9,81,0.00,CLR,,0.00,WeatherDisplay:10.37,2013-06-11 17:59:00,
2013-06-11 14:04:00,80.1,73.4,29.94,SW,225,10.4,10.4,80,0.00,CLR,,0.00,WeatherDisplay:10.37,2013-06-11 18:04:00,
2013-06-11 14:09:00,80.2,74.2,29.94,WSW,248,6.9,6.9,82,0.00,CLR,,0.00,WeatherDisplay:10.37,2013-06-11 18:09:00,
2013-06-11 14:14:00,80.1,74.1,29.94,SW,225,8.1,8.1,82,0.00,CLR,,0.00,WeatherDisplay:10.37,2013-06-11 18:14:00,
2013-06-11 14:19:00,79.3,73.7,29.94,SW,225,8.1,8.1,83,0.00,CLR,,0.00,WeatherDisplay:10.37,2013-06-11 18:19:00,
2013-06-11 14:24:00,79.9,74.3,29.94,SSW,202,9.2,9.2,83,0.00,CLR,,0.00,WeatherDisplay:10.37,2013-06-11 18:24:00,
2013-06-11 14:29:00,79.9,74.3,29.93,SW,225,8.1,8.1,83,0.00,CLR,,0.00,WeatherDisplay:10.37,2013-06-11 18:29:00,
2013-06-11 14:34:00,79.9,74.6,29.93,SW,225,9.2,9.2,84,0.00,CLR,,0.00,WeatherDisplay:10.37,2013-06-11 18:34:00,
2013-06-11 14:39:00,79.9,74.6,29.94,WSW,248,8.3,8.3,84,0.00,CLR,,0.00,WeatherDisplay:10.37,2013-06-11 18:39:00,
2013-06-11 14:44:00,79.9,75.0,29.94,SW,225,8.1,8.1,85,0.00,CLR,,0.00,WeatherDisplay:10.37,2013-06-11 18:44:00,
2013-06-11 14:49:00,79.7,74.8,29.94,WSW,248,9.2,9.2,85,0.00,CLR,,0.00,WeatherDisplay:10.37,2013-06-11 18:49:00,
2013-06-11 14:55:00,79.3,74.4,29.93,West,270,6.9,6.9,85,0.00,CLR,,0.00,WeatherDisplay:10.37,2013-06-11 18:55:00,
2013-06-11 15:00:00,79.7,75.1,29.93,West,270,9.2,9.2,86,0.00,CLR,,0.00,WeatherDisplay:10.37,2013-06-11 19:00:00,
2013-06-11 15:05:00,79.5,74.6,29.92,SSW,202,8.1,8.8,85,0.00,CLR,,0.00,WeatherDisplay:10.37,2013-06-11 19:05:00,
2013-06-11 15:10:00,79.3,74.4,29.92,WSW,248,9.2,9.2,85,0.00,CLR,,0.00,WeatherDisplay:10.37,2013-06-11 19:10:00,
2013-06-11 15:15:00,79.3,74.7,29.92,NW,315,6.9,6.9,86,0.00,CLR,,0.00,WeatherDisplay:10.37,2013-06-11 19:15:00,
2013-06-11 15:20:00,79.9,75.3,29.92,WSW,248,7.4,7.4,86,0.00,CLR,,0.00,WeatherDisplay:10.37,2013-06-11 19:20:00,
2013-06-11 15:25:00,79.7,75.1,29.92,WSW,248,6.9,6.9,86,0.00,CLR,,0.00,WeatherDisplay:10.37,2013-06-11 19:25:00,
2013-06-11 15:30:00,79.7,74.8,29.92,WNW,292,6.9,6.9,85,0.00,CLR,,0.00,WeatherDisplay:10.37,2013-06-11 19:30:00,
2013-06-11 15:35:00,79.7,74.8,29.92,SW,225,7.4,7.4,85,0.00,CLR,,0.00,WeatherDisplay:10.37,2013-06-11 19:35:00,
2013-06-11 15:40:00,79.9,75.0,29.92,WSW,248,6.9,6.9,85,0.00,CLR,,0.00,WeatherDisplay:10.37,2013-06-11 19:40:00,
2013-06-11 15:45:00,79.9,75.0,29.92,WSW,248,8.1,8.1,85,0.00,CLR,,0.00,WeatherDisplay:10.37,2013-06-11 19:45:00,
2013-06-11 15:50:00,79.9,75.3,29.91,West,270,5.8,5.8,86,0.00,CLR,,0.00,WeatherDisplay:10.37,2013-06-11 19:50:00,
2013-06-11 15:55:00,80.2,75.3,29.91,West,270,8.1,8.1,85,0.00,CLR,,0.00,WeatherDisplay:10.37,2013-06-11 19:55:00,
2013-06-11 16:00:00,79.9,75.0,29.91,SW,225,6.9,6.9,85,0.00,CLR,,0.00,WeatherDisplay:10.37,2013-06-11 20:00:00,
2013-06-11 16:05:00,80.2,75.3,29.91,WSW,248,7.4,7.4,85,0.00,CLR,,0.00,WeatherDisplay:10.37,2013-06-11 20:05:00,
2013-06-11 16:10:00,80.2,75.3,29.91,WSW,248,6.9,6.9,85,0.00,CLR,,0.00,WeatherDisplay:10.37,2013-06-11 20:10:00,
2013-06-11 16:15:00,80.2,75.3,29.91,WSW,248,10.4,10.4,85,0.00,CLR,,0.00,WeatherDisplay:10.37,2013-06-11 20:15:00,
2013-06-11 16:20:00,79.9,74.6,29.91,SW,225,9.2,9.2,84,0.00,CLR,,0.00,WeatherDisplay:10.37,2013-06-11 20:20:00,
2013-06-11 16:25:00,79.9,75.0,29.91,SSW,202,8.3,8.3,85,0.00,CLR,,0.00,WeatherDisplay:10.37,2013-06-11 20:25:00,
2013-06-11 16:30:00,79.9,74.6,29.90,WSW,248,8.1,8.1,84,0.00,CLR,,0.00,WeatherDisplay:10.37,2013-06-11 20:30:00,
2013-06-11 16:35:00,80.4,75.1,29.90,WSW,248,9.2,9.2,84,0.00,CLR,,0.00,WeatherDisplay:10.37,2013-06-11 20:35:00,
2013-06-11 16:40:00,80.1,74.8,29.90,WSW,248,9.2,9.2,84,0.00,CLR,,0.00,WeatherDisplay:10.37,2013-06-11 20:40:00,
2013-06-11 16:45:00,80.1,74.8,29.90,WNW,292,6.9,6.9,84,0.00,CLR,,0.00,WeatherDisplay:10.37,2013-06-11 20:45:00,
2013-06-11 16:50:00,80.1,74.8,29.90,SW,225,6.9,6.9,84,0.00,CLR,,0.00,WeatherDisplay:10.37,2013-06-11 20:50:00,
2013-06-11 16:55:00,80.1,74.1,29.89,WSW,248,4.7,4.7,82,0.00,CLR,,0.00,WeatherDisplay:10.37,2013-06-11 20:55:00,
2013-06-11 17:00:00,80.1,74.5,29.89,WSW,248,8.1,8.1,83,0.00,CLR,,0.00,WeatherDisplay:10.37,2013-06-11 21:00:00,
2013-06-11 17:05:00,80.1,74.5,29.90,WSW,248,6.9,6.9,83,0.00,CLR,,0.00,WeatherDisplay:10.37,2013-06-11 21:05:00,
2013-06-11 17:10:00,80.1,74.5,29.90,West,270,6.9,6.9,83,0.00,CLR,,0.00,WeatherDisplay:10.37,2013-06-11 21:10:00,
2013-06-11 17:15:00,79.9,74.6,29.90,WSW,248,6.9,6.9,84,0.00,CLR,,0.00,WeatherDisplay:10.37,2013-06-11 21:15:00,
2013-06-11 17:20:00,79.9,75.0,29.90,West,270,4.6,4.6,85,0.00,CLR,,0.00,WeatherDisplay:10.37,2013-06-11 21:20:00,
2013-06-11 17:25:00,79.9,75.0,29.90,West,270,3.5,3.5,85,0.00,CLR,,0.00,WeatherDisplay:10.37,2013-06-11 21:25:00,
2013-06-11 17:30:00,79.3,74.4,29.73,West,270,1.1,-999.0,85,-99.99,,,0.00,Acu-Link.com,2013-06-11 21:30:00,
2013-06-11 17:35:00,79.3,74.4,29.90,WSW,248,4.6,4.6,85,0.00,CLR,,0.00,WeatherDisplay:10.37,2013-06-11 21:35:00,
2013-06-11 17:40:00,79.3,74.4,29.90,WNW,292,4.6,4.6,85,0.00,CLR,,0.00,WeatherDisplay:10.37,2013-06-11 21:40:00,
2013-06-11 17:45:00,79.3,74.4,29.90,WSW,248,6.5,6.5,85,0.00,CLR,,0.00,WeatherDisplay:10.37,2013-06-11 21:45:00,
2013-06-11 17:50:00,79.3,74.0,29.89,WSW,248,8.1,8.1,84,0.00,CLR,,0.00,WeatherDisplay:10.37,2013-06-11 21:50:00,
2013-06-11 17:55:00,79.3,74.4,29.89,WNW,292,6.9,6.9,85,0.00,CLR,,0.00,WeatherDisplay:10.37,2013-06-11 21:55:00,
2013-06-11 18:00:00,79.2,74.3,29.89,WSW,248,4.7,4.7,85,0.00,CLR,,0.00,WeatherDisplay:10.37,2013-06-11 22:00:00,
2013-06-11 18:05:00,79.2,74.6,29.90,WSW,248,4.6,4.6,86,0.00,CLR,,0.00,WeatherDisplay:10.37,2013-06-11 22:05:00,
2013-06-11 18:10:00,79.2,74.6,29.90,West,270,4.6,4.6,86,0.00,CLR,,0.00,WeatherDisplay:10.37,2013-06-11 22:10:00,
2013-06-11 18:15:00,79.2,74.6,29.90,West,270,6.9,6.9,86,0.00,CLR,,0.00,WeatherDisplay:10.37,2013-06-11 22:15:00,
2013-06-11 18:20:00,79.2,74.6,29.90,WSW,248,5.8,5.8,86,0.00,CLR,,0.00,WeatherDisplay:10.37,2013-06-11 22:20:00,
2013-06-11 18:25:00,79.0,74.5,29.90,WSW,248,6.9,6.9,86,0.00,CLR,,0.00,WeatherDisplay:10.37,2013-06-11 22:25:00,
2013-06-11 18:30:00,79.0,74.5,29.90,SW,225,6.9,6.9,86,0.00,CLR,,0.00,WeatherDisplay:10.37,2013-06-11 22:30:00,
2013-06-11 18:35:00,79.0,74.5,29.90,WSW,248,5.8,5.8,86,0.00,CLR,,0.00,WeatherDisplay:10.37,2013-06-11 22:35:00,
2013-06-11 18:40:00,79.0,74.8,29.90,NW,315,5.8,5.8,87,0.00,CLR,,0.00,WeatherDisplay:10.37,2013-06-11 22:40:00,
2013-06-11 18:45:00,78.8,74.6,29.90,NW,315,5.8,5.8,87,0.00,CLR,,0.00,WeatherDisplay:10.37,2013-06-11 22:45:00,
2013-06-11 18:50:00,78.8,74.9,29.90,West,270,5.6,5.6,88,0.00,CLR,,0.00,WeatherDisplay:10.37,2013-06-11 22:50:00,
2013-06-11 18:55:00,78.8,75.3,29.90,WSW,248,6.9,6.9,89,0.00,CLR,,0.00,WeatherDisplay:10.37,2013-06-11 22:55:00,
2013-06-11 19:00:00,78.8,75.3,29.90,WSW,248,5.8,5.8,89,0.00,CLR,,0.00,WeatherDisplay:10.37,2013-06-11 23:00:00,
2013-06-11 19:05:00,78.6,75.1,29.90,West,270,11.5,11.5,89,0.00,CLR,,0.00,WeatherDisplay:10.37,2013-06-11 23:05:00,
2013-06-11 19:10:00,78.6,75.1,29.90,WSW,248,5.6,5.6,89,0.00,CLR,,0.00,WeatherDisplay:10.37,2013-06-11 23:10:00,
2013-06-11 19:15:00,78.6,75.1,29.91,SW,225,6.9,6.9,89,0.00,CLR,,0.00,WeatherDisplay:10.37,2013-06-11 23:15:00,
2013-06-11 19:20:00,78.3,75.1,29.91,WSW,248,7.4,7.4,90,0.00,CLR,,0.00,WeatherDisplay:10.37,2013-06-11 23:20:00,
2013-06-11 19:25:00,78.3,75.1,29.91,West,270,4.7,4.7,90,0.00,CLR,,0.00,WeatherDisplay:10.37,2013-06-11 23:25:00,
2013-06-11 19:30:00,78.3,75.5,29.91,WSW,248,5.8,5.8,91,0.00,CLR,,0.00,WeatherDisplay:10.37,2013-06-11 23:30:00,
2013-06-11 19:35:00,78.3,75.5,29.91,WSW,248,4.6,4.6,91,0.00,CLR,,0.00,WeatherDisplay:10.37,2013-06-11 23:35:00,
2013-06-11 19:40:00,78.1,75.3,29.91,WSW,248,6.9,6.9,91,0.00,CLR,,0.00,WeatherDisplay:10.37,2013-06-11 23:40:00,
2013-06-11 19:45:00,78.1,75.3,29.91,West,270,5.8,5.8,91,0.00,CLR,,0.00,WeatherDisplay:10.37,2013-06-11 23:45:00,
2013-06-11 19:50:00,78.1,75.3,29.91,WSW,248,6.9,6.9,91,0.00,CLR,,0.00,WeatherDisplay:10.37,2013-06-11 23:50:00,
2013-06-11 19:55:00,78.1,75.6,29.91,WSW,248,5.8,5.8,92,0.00,CLR,,0.00,WeatherDisplay:10.37,2013-06-11 23:55:00,
2013-06-11 20:00:00,77.7,77.1,29.91,WSW,248,5.8,5.8,98,0.00,CLR,,0.00,WeatherDisplay:10.37,2013-06-12 00:00:00,
2013-06-11 20:05:00,77.9,77.3,29.92,WSW,248,4.7,4.7,98,0.00,CLR,,0.00,WeatherDisplay:10.37,2013-06-12 00:05:00,
2013-06-11 20:10:00,77.7,77.1,29.92,WSW,248,5.8,5.8,98,0.00,CLR,,0.00,WeatherDisplay:10.37,2013-06-12 00:10:00,
2013-06-11 20:15:00,77.7,77.1,29.92,WSW,248,5.8,5.8,98,0.00,CLR,,0.00,WeatherDisplay:10.37,2013-06-12 00:15:00,
2013-06-11 20:20:00,77.7,77.1,29.92,WNW,292,5.8,5.8,98,0.00,CLR,,0.00,WeatherDisplay:10.37,2013-06-12 00:20:00,
2013-06-11 20:25:00,77.5,76.9,29.92,WSW,248,4.6,4.6,98,0.00,CLR,,0.00,WeatherDisplay:10.37,2013-06-12 00:25:00,
2013-06-11 20:30:00,77.5,76.9,29.92,WSW,248,3.8,3.8,98,0.00,CLR,,0.00,WeatherDisplay:10.37,2013-06-12 00:30:00,
2013-06-11 20:35:00,77.5,76.9,29.92,West,270,4.6,4.6,98,0.00,CLR,,0.00,WeatherDisplay:10.37,2013-06-12 00:35:00,
2013-06-11 20:41:00,77.5,76.9,29.92,WSW,248,5.6,5.6,98,0.00,CLR,,0.00,WeatherDisplay:10.37,2013-06-12 00:41:00,
2013-06-11 20:46:00,77.5,76.9,29.92,West,270,4.6,4.6,98,0.00,CLR,,0.00,WeatherDisplay:10.37,2013-06-12 00:46:00,
2013-06-11 20:51:00,77.5,76.9,29.92,West,270,3.5,3.5,98,0.00,CLR,,0.00,WeatherDisplay:10.37,2013-06-12 00:51:00,
2013-06-11 20:56:00,77.5,76.9,29.92,WSW,248,4.6,4.6,98,0.00,CLR,,0.00,WeatherDisplay:10.37,2013-06-12 00:56:00,
2013-06-11 21:01:00,77.5,76.9,29.92,West,270,3.5,3.5,98,0.00,CLR,,0.00,WeatherDisplay:10.37,2013-06-12 01:01:00,
2013-06-11 21:06:00,77.5,76.9,29.92,West,270,5.8,5.8,98,0.00,CLR,,0.00,WeatherDisplay:10.37,2013-06-12 01:06:00,
2013-06-11 21:11:00,77.5,76.9,29.92,West,270,3.8,3.8,98,0.00,CLR,,0.00,WeatherDisplay:10.37,2013-06-12 01:11:00,
2013-06-11 21:16:00,77.7,77.1,29.93,WSW,248,4.7,4.7,98,0.00,CLR,,0.00,WeatherDisplay:10.37,2013-06-12 01:16:00,
2013-06-11 21:21:00,77.7,77.1,29.93,West,270,0.0,0.0,98,0.00,CLR,,0.00,WeatherDisplay:10.37,2013-06-12 01:21:00,
2013-06-11 21:26:00,77.7,77.1,29.93,West,270,3.5,3.5,98,0.00,CLR,,0.00,WeatherDisplay:10.37,2013-06-12 01:26:00,
2013-06-11 21:31:00,77.7,77.1,29.93,West,270,3.5,3.5,98,0.00,CLR,,0.00,WeatherDisplay:10.37,2013-06-12 01:31:00,
2013-06-11 21:36:00,77.7,77.1,29.93,West,270,3.5,3.5,98,0.00,CLR,,0.00,WeatherDisplay:10.37,2013-06-12 01:36:00,
2013-06-11 21:41:00,77.7,77.1,29.94,West,270,5.8,5.8,98,0.00,CLR,,0.00,WeatherDisplay:10.37,2013-06-12 01:41:00,
2013-06-11 21:46:00,77.7,77.1,29.94,West,270,0.0,0.0,98,0.00,CLR,,0.00,WeatherDisplay:10.37,2013-06-12 01:46:00,
2013-06-11 21:51:00,77.7,77.1,29.94,West,270,3.5,3.5,98,0.00,CLR,,0.00,WeatherDisplay:10.37,2013-06-12 01:51:00,
2013-06-11 21:56:00,77.7,77.1,29.94,West,270,3.5,3.5,98,0.00,CLR,,0.00,WeatherDisplay:10.37,2013-06-12 01:56:00,
2013-06-11 22:01:00,77.5,76.9,29.94,West,270,3.5,3.5,98,0.00,CLR,,0.00,WeatherDisplay:10.37,2013-06-12 02:01:00,
2013-06-11 22:06:00,77.4,76.8,29.94,West,270,3.5,3.5,98,0.00,CLR,,0.00,WeatherDisplay:10.37,2013-06-12 02:06:00,
2013-06-11 22:11:00,77.4,76.8,29.94,West,270,3.5,3.5,98,0.00,CLR,,0.00,WeatherDisplay:10.37,2013-06-12 02:11:00,
2013-06-11 22:16:00,77.2,76.6,29.95,West,270,4.7,4.7,98,0.00,CLR,,0.00,WeatherDisplay:10.37,2013-06-12 02:16:00,
2013-06-11 22:21:00,77.2,76.6,29.95,West,270,4.6,4.6,98,0.00,CLR,,0.00,WeatherDisplay:10.37,2013-06-12 02:21:00,
2013-06-11 22:26:00,77.2,76.6,29.95,West,270,3.5,3.5,98,0.00,CLR,,0.00,WeatherDisplay:10.37,2013-06-12 02:26:00,
2013-06-11 22:32:00,77.2,76.6,29.95,West,270,0.0,0.0,98,0.00,CLR,,0.00,WeatherDisplay:10.37,2013-06-12 02:32:00,
2013-06-11 22:37:00,77.4,76.8,29.95,West,270,3.5,3.5,98,0.00,CLR,,0.00,WeatherDisplay:10.37,2013-06-12 02:37:00,
2013-06-11 22:42:00,77.4,76.8,29.95,West,270,3.5,3.5,98,0.00,CLR,,0.00,WeatherDisplay:10.37,2013-06-12 02:42:00,
2013-06-11 22:47:00,77.5,76.9,29.95,West,270,4.6,4.6,98,0.00,CLR,,0.00,WeatherDisplay:10.37,2013-06-12 02:47:00,
2013-06-11 22:52:00,77.5,76.9,29.95,West,270,4.7,4.7,98,0.00,CLR,,0.00,WeatherDisplay:10.37,2013-06-12 02:52:00,
2013-06-11 22:57:00,77.5,76.9,29.95,West,270,3.5,3.5,98,0.00,CLR,,0.00,WeatherDisplay:10.37,2013-06-12 02:57:00,
2013-06-11 23:02:00,77.5,76.9,29.95,WSW,248,4.7,4.7,98,0.00,CLR,,0.00,WeatherDisplay:10.37,2013-06-12 03:02:00,
2013-06-11 23:07:00,77.5,76.9,29.95,West,270,3.5,3.6,98,0.00,CLR,,0.00,WeatherDisplay:10.37,2013-06-12 03:07:00,
2013-06-11 23:12:00,77.5,76.9,29.95,West,270,4.6,4.6,98,0.00,CLR,,0.00,WeatherDisplay:10.37,2013-06-12 03:12:00,
2013-06-11 23:17:00,77.5,76.9,29.95,WSW,248,4.7,4.7,98,0.00,CLR,,0.00,WeatherDisplay:10.37,2013-06-12 03:17:00,
2013-06-11 23:22:00,77.5,76.9,29.95,West,270,3.5,3.5,98,0.00,CLR,,0.00,WeatherDisplay:10.37,2013-06-12 03:22:00,
2013-06-11 23:27:00,77.5,76.9,29.95,West,270,3.5,3.5,98,0.00,CLR,,0.00,WeatherDisplay:10.37,2013-06-12 03:27:00,
2013-06-11 23:32:00,77.4,76.8,29.95,West,270,4.6,4.6,98,0.00,CLR,,0.00,WeatherDisplay:10.37,2013-06-12 03:32:00,
2013-06-11 23:37:00,77.4,76.8,29.95,West,270,3.5,3.5,98,0.00,CLR,,0.00,WeatherDisplay:10.37,2013-06-12 03:37:00,
2013-06-11 23:42:00,77.4,76.8,29.95,West,270,3.8,3.8,98,0.00,CLR,,0.00,WeatherDisplay:10.37,2013-06-12 03:42:00,
2013-06-11 23:47:00,77.4,76.8,29.95,West,270,4.6,4.6,98,0.00,CLR,,0.00,WeatherDisplay:10.37,2013-06-12 03:47:00,
2013-06-11 23:52:00,77.4,76.8,29.96,West,270,4.6,4.6,98,0.00,CLR,,0.00,WeatherDisplay:10.37,2013-06-12 03:52:00,
2013-06-11 23:57:00,77.4,76.8,29.96,West,270,3.5,3.5,98,0.00,CLR,,0.00,WeatherDisplay:10.37,2013-06-12 03:57:00,